Pendleton, OR

9:13 PM PST on February 06, 2016 (GMT -0800)
Eastern Oreg Regional At Pendleton

Weather History for KPDT - April, 2013

Change the Weather History Date:

Tuesday, April 2, 2013

  Actual Average Record
Temperature  
Mean Temperature 57 °F 49 °F  
Max Temperature 69 °F 59 °F 84 °F (1944)
Min Temperature 45 °F 38 °F 20 °F (1935)
Degree Days  
Heating Degree Days 8 16  
Month to date heating degree days 17 33  
Since 1 July heating degree days 4343 4549  
Cooling Degree Days 0 0  
Month to date cooling degree days 0 0  
Year to date cooling degree days 0 0  
Growing Degree Days 7 (Base 50)    
Moisture  
Dew Point 41 °F    
Average Humidity 55    
Maximum Humidity 76    
Minimum Humidity 34    
Precipitation  
Precipitation 0.00 in 0.03 in 0.43 in (1897)
Month to date precipitation 0.00 0.07  
Year to date precipitation 1.90 3.93  
Snow  
Snow 0.00 in 0.00 in T in (2010)
Month to date snowfall 0.0 0.0  
Year to date snowfall 0.2 7.7  
Since 1 July snowfall 2.0 15.2  
Snow Depth 0.00 in    
Sea Level Pressure  
Sea Level Pressure 30.07 in    
Wind  
Wind Speed 12 mph (SW)    
Max Wind Speed 23 mph    
Max Gust Speed 28 mph    
Visibility 10 miles    
Events      
T = Trace of Precipitation, MM = Missing Value Source: NWS Daily Summary

Daily Weather History Graph

Daily Weather History Graph

Search for Another Location

Airport or City:

Trip Planner

Search our weather history database for the weather conditions in past years. The results will help you decide how hot, cold, wet, or windy it might be!

Date:

Astronomy

Apr. 02, 2013 Rise Set
Actual Time 6:32 AM PDT 7:25 PM PDT
Civil Twilight 6:02 AM PDT 7:55 PM PDT
Nautical Twilight 5:26 AM PDT 8:31 PM PDT
Astronomical Twilight 4:49 AM PDT 9:09 PM PDT
Moon 1:46 AM PDT (4/2) 11:17 AM PDT (4/2)
Length of Visible Light 13h 52m
Length of Day
12h 52m
Waning Gibbous, 55% of the Moon is Illuminated
Apr 2
Waning Gibbous
Apr 2
Last Quarter
Apr 10
New
Apr 18
First Quarter
Apr 25
Full

Hourly Weather History & Observations

Time (PDT) Temp. Dew Point Humidity Pressure Visibility Wind Dir Wind Speed Gust Speed Precip Events Conditions
12:53 AM 54.0 °F 41.0 °F 62% 30.04 in 10.0 mi SSE 5.8 mph - N/A   Clear
1:53 AM 52.0 °F 41.0 °F 66% 30.05 in 10.0 mi SSE 5.8 mph - N/A   Clear
2:53 AM 51.1 °F 41.0 °F 68% 30.06 in 10.0 mi South 5.8 mph - N/A   Clear
3:53 AM 51.1 °F 41.0 °F 68% 30.07 in 10.0 mi South 6.9 mph - N/A   Clear
4:53 AM 48.9 °F 39.9 °F 71% 30.08 in 10.0 mi SSE 6.9 mph - N/A   Clear
5:53 AM 46.9 °F 39.9 °F 77% 30.09 in 10.0 mi South 8.1 mph - N/A   Clear
6:53 AM 46.9 °F 39.9 °F 77% 30.10 in 10.0 mi South 6.9 mph - N/A   Scattered Clouds
7:53 AM 50.0 °F 42.1 °F 74% 30.11 in 10.0 mi South 4.6 mph - N/A   Overcast
8:53 AM 53.1 °F 43.0 °F 69% 30.11 in 10.0 mi SW 10.4 mph - N/A   Overcast
9:53 AM 57.9 °F 44.1 °F 60% 30.10 in 10.0 mi West 20.7 mph - N/A   Scattered Clouds
10:53 AM 59.0 °F 43.0 °F 55% 30.10 in 10.0 mi West 16.1 mph - N/A   Mostly Cloudy
11:53 AM 62.1 °F 43.0 °F 50% 30.09 in 10.0 mi West 16.1 mph 26.5 mph N/A   Scattered Clouds
12:53 PM 64.0 °F 42.1 °F 45% 30.07 in 10.0 mi WSW 12.7 mph 26.5 mph N/A   Partly Cloudy
1:53 PM 66.0 °F 43.0 °F 43% 30.05 in 10.0 mi West 9.2 mph 19.6 mph N/A   Clear
2:53 PM 66.9 °F 42.1 °F 40% 30.03 in 10.0 mi WNW 17.3 mph 23.0 mph N/A   Clear
3:53 PM 68.0 °F 41.0 °F 37% 30.02 in 10.0 mi West 16.1 mph 23.0 mph N/A   Clear
4:53 PM 66.9 °F 37.9 °F 34% 30.02 in 10.0 mi West 18.4 mph - N/A   Clear
5:53 PM 64.0 °F 39.0 °F 40% 30.03 in 10.0 mi West 16.1 mph - N/A   Clear
6:53 PM 60.1 °F 39.9 °F 47% 30.03 in 10.0 mi WNW 16.1 mph - N/A   Clear
7:53 PM 57.0 °F 39.0 °F 51% 30.03 in 10.0 mi West 11.5 mph - N/A   Clear
8:53 PM 57.0 °F 39.0 °F 51% 30.06 in 10.0 mi SW 9.2 mph - N/A   Clear
9:53 PM 54.0 °F 39.0 °F 57% 30.08 in 10.0 mi WSW 5.8 mph - N/A   Clear
10:53 PM 53.1 °F 39.9 °F 61% 30.08 in 10.0 mi SW 9.2 mph - N/A   Clear
11:53 PM 54.0 °F 41.0 °F 62% 30.07 in 10.0 mi WSW 20.7 mph - N/A   Clear